Location: Claremont
(35.7250°N, 81.1500°W)
Time: 04:20:14
(UTC-04:00)

Daily predictions for brighter satellites

Satellite Brightness Start Highest point End
(mag) Time Altitude Azimuth Time Altitude Azimuth Time Altitude Azimuth
Cosmos 2237 Rocket 2.8 00:06:07 10° N 00:11:02 48° NE 00:11:02 48° NE
Cosmos 1428 Rocket 4.5 00:14:38 10° N 00:20:15 74° NW 00:20:15 74° NW
H-2A R/B 4.3 00:26:57 19° NE 00:26:57 19° NE 00:28:43 10° NNE
Mayak 1.1 00:26:12 10° NNE 00:27:37 20° NNE 00:27:37 20° NNE
Cosmos 2266 Rocket 4.5 00:27:27 10° N 00:33:02 53° ENE 00:33:02 53° ENE
CZ-4C R/B 3.5 00:41:45 10° NW 00:48:29 47° WSW 00:48:29 47° WSW
COSMOS 2455 3.4 00:50:51 53° NW 00:50:51 53° NW 00:56:32 10° NNE
CZ-2C R/B 4.3 00:51:10 10° NNW 00:55:42 26° WNW 00:56:18 25° WNW
Cosmos 2219 Rocket 3.9 00:56:26 10° NW 00:59:19 22° WNW 00:59:19 22° WNW
Meteor 2-5 Rocket 4.4 01:22:13 54° NNE 01:22:13 54° NNE 01:26:44 10° N
Cosmos 2263 Rocket 4.2 01:24:40 18° ENE 01:24:40 18° ENE 01:26:57 10° NE
Cosmos 2333 Rocket 4.3 01:19:37 10° WNW 01:21:38 16° WNW 01:21:38 16° WNW
SL-16 R/B 3.0 01:22:41 10° NNW 01:26:44 49° NNW 01:26:44 49° NNW
Cosmos 2297 Rocket 4.1 01:41:29 20° WNW 01:42:13 20° WNW 01:46:19 10° N
Cosmos 2227 Rocket 4.3 01:44:40 16° WNW 01:45:50 17° NW 01:49:25 10° NNW
ADEOS Rocket 3.8 01:42:29 10° N 01:46:45 37° NW 01:46:45 37° NW
NOSS 3-1 (C) 3.8 01:56:13 55° NE 01:56:13 55° NE 02:01:01 10° NNE
Cosmos 2237 Rocket 4.4 01:51:24 10° WNW 01:52:51 15° WNW 01:52:51 15° WNW
Cosmos 1603 4.4 01:54:25 10° N 01:59:24 49° NE 01:59:24 49° NE
Mayak 1.6 02:03:55 10° NW 02:04:15 11° NW 02:04:15 11° NW
USA 229 DEB 4.3 02:13:42 43° WNW 02:14:29 44° NW 02:21:02 10° NNE
USA 229 4.3 02:13:49 43° WNW 02:14:35 45° NW 02:21:08 10° NNE
NOSS 3-1 (A) 3.6 02:16:40 61° NE 02:16:40 61° NE 02:21:49 10° NE
Cosmos 1553 Rocket 4.3 02:21:26 55° NW 02:21:26 55° NW 02:26:51 10° N
CZ-2D R/B 3.8 02:25:52 10° NE 02:29:47 22° E 02:29:47 22° E
USA 267 4.2 02:24:36 10° ENE 02:29:44 32° ESE 02:29:44 32° ESE
Cosmos 2221 4.1 02:34:36 10° N 02:37:43 34° NE 02:37:43 34° NE
MOS 1 Rocket 4.4 02:36:58 10° N 02:41:21 43° NW 02:41:21 43° NW
Cosmos 1844 Rocket 4.3 02:47:20 22° ESE 02:47:51 23° E 02:52:10 10° NE
Resurs 1-4 Rocket 3.2 02:43:42 10° NNE 02:48:31 34° E 02:48:39 34° E
Cosmos 883 Rocket 4.4 02:51:11 72° WNW 02:51:11 72° WNW 02:57:07 10° N
DELTA 2 R/B (1) 3.9 02:55:45 48° NW 02:57:07 64° N 03:02:40 10° E
NPP 3.8 02:53:45 10° NNE 02:59:02 64° E 02:59:02 64° E
SL-16 R/B 3.2 03:00:50 32° SE 03:03:27 52° ENE 03:09:26 10° N
Cosmos 2263 Rocket 2.7 03:06:21 46° WNW 03:06:21 46° WNW 03:11:47 10° N
Cosmos 2315 Rocket 3.9 03:06:44 71° WSW 03:06:59 72° W 03:13:13 10° N
SL-08 ROCKET BODY 4.3 03:03:42 10° N 03:09:50 84° E 03:10:38 68° SSE
NOSS 2-3 (D) 4.1 03:10:35 59° ENE 03:10:35 59° ENE 03:14:54 10° NE
Cosmos 1943 3.3 03:05:18 10° NNW 03:10:17 62° WNW 03:10:17 62° WNW
Cosmos 921 Rocket 4.4 03:08:26 10° N 03:12:21 34° ENE 03:13:09 31° E
BREEZE M DEB (TANK) 3.6 03:10:48 51° SW 03:13:08 86° SE 03:17:10 10° NE
GEOS 3 Rocket 4.3 03:08:14 10° NNE 03:13:15 43° NW 03:13:41 42° WNW
Cosmos 1269 Rocket 3.9 03:16:04 84° NW 03:16:04 84° NW 03:21:18 10° NNE
Cosmos 1452 Rocket 4.4 03:20:48 10° NNW 03:24:23 36° WNW 03:24:23 36° WNW
H-2A R/B 2.7 03:22:47 10° NNE 03:26:46 71° NNE 03:26:46 71° NNE
Cosmos 1455 3.7 03:24:46 10° NNE 03:28:08 30° ENE 03:28:26 30° E
NOSS 2-3 (E) 3.8 03:30:40 71° NW 03:30:40 71° NW 03:35:40 10° NNE
Cosmos 1408 Rocket 3.8 03:34:24 61° E 03:34:29 61° E 03:38:46 10° NNE
Cosmos 2058 3.9 03:34:44 38° ESE 03:35:14 40° E 03:39:11 10° NNE
ATLAS 2AS CENTAUR R/B 3.8 03:35:04 27° SSE 03:38:39 41° ESE 03:46:04 10° NE
Geosat 4.1 03:34:50 10° NNE 03:39:51 67° ESE 03:40:39 57° SSE
Centaur D-1AR AC-394.503:44:56SE03:44:56SE03:23:18WSW
Okean 3 Rocket 4.3 03:44:47 41° WNW 03:44:47 41° WNW 03:48:32 10° N
AQUA 4.1 03:43:00 10° N 03:47:36 50° WNW 03:47:45 50° W
Nadezhda 1 Rocket 4.1 03:45:18 38° S 03:47:50 74° E 03:54:07 10° N
Cosmos 2074 Rocket 3.9 03:44:16 10° N 03:50:31 89° W 03:53:18 36° S
Cosmos 1607 4.0 03:45:19 10° NNW 03:51:45 81° ENE 03:58:00 10° SSE
OAO 1 4.4 03:52:57 55° WSW 03:54:07 75° S 03:59:38 10° E
SeaSat 1 2.5 03:51:17 22° SSE 03:54:30 77° ENE 03:59:27 10° NNW
Cosmos 1626 4.0 03:57:05 21° NW 03:57:05 21° NW 03:59:02 10° NNW
Cosmos 2184 Rocket 3.9 03:49:38 10° N 03:56:03 84° W 03:59:10 33° S
Spot 4 Rocket 3.9 03:53:32 10° N 03:58:42 83° WNW 04:00:05 50° SSW
UNK 4.1 03:59:24 47° W 03:59:24 47° W 04:03:43 10° NNW
Meteor 1-27 4.2 03:59:23 10° N 04:05:07 85° W 04:08:15 29° S
Cosmos 1743 Rocket 3.7 04:04:18 41° SSE 04:05:39 65° E 04:09:55 10° NNE
Cosmos 2151 2.9 04:07:27 52° S 04:08:28 86° E 04:12:48 10° N
CZ-2D R/B 2.7 04:05:11 10° N 04:09:58 38° WNW 04:11:07 34° W
SL-08 R/B 4.0 04:10:45 37° W 04:10:48 37° W 04:15:22 10° NNW
USA 267 3.5 04:07:07 10° NE 04:13:32 61° NW 04:17:05 28° WSW
Meteor 2-21 4.3 04:08:13 10° N 04:14:19 88° W 04:18:45 19° S
IRS-1D 4.2 04:10:57 10° N 04:15:57 42° WNW 04:17:27 34° WSW
Cosmos 2327 Rocket 4.4 04:12:00 10° NNW 04:18:01 64° W 04:21:24 27° SSW
Cosmos 1110 Rocket 3.9 04:13:34 10° NNW 04:18:41 61° WSW 04:21:14 29° S
Cosmos 405 Rocket 4.1 04:16:20 10° N 04:19:53 37° ENE 04:23:22 10° SSE
ARIANE 5 R/B 2.8 04:15:11 10° N 04:20:05 51° WNW 04:21:43 36° WSW
BREEZE-M R/B 4.3 04:22:49 31° SSW 04:22:49 31° SSW 04:28:15 10° SSE
BREEZE-M DEB (TANK) 3.9 04:19:24 23° WSW 04:24:36 65° NNW 04:28:11 10° NE
Cosmos 220 Rocket 3.9 04:24:16 40° SSW 04:25:46 81° WNW 04:30:06 10° NNE
Meteor 2-10 Rocket 4.1 04:20:58 10° N 04:25:54 53° E 04:30:46 10° SSE
H-II Stage 2 3.6 04:24:03 31° SW 04:26:28 49° S 04:50:03 10° ESE
Resurs 1-4 Rocket 3.3 04:23:48 10° NNW 04:28:08 26° WNW 04:29:44 22° W
Cosmos 1844 Rocket 3.3 04:29:01 28° WSW 04:31:23 43° WNW 04:36:46 10° N
Meteor 2-14 Rocket 4.3 04:26:16 10° N 04:32:23 78° W 04:38:05 12° S
OAO 2 Rocket 3.2 04:32:58 23° W 04:36:06 84° S 04:41:02 10° E
Cosmos 1500 Rocket 3.7 04:39:17 29° SSW 04:41:25 59° W 04:45:48 10° N
Cosmos 2278 Rocket 2.4 04:37:33 19° S 04:41:41 72° ESE 04:47:20 10° NNE
SL-19 R/B 4.1 04:39:29 10° SSE 04:42:26 59° ENE 04:45:14 10° N
Cosmos 1328 Rocket 4.0 04:38:28 10° NNW 04:42:29 39° W 04:44:01 28° SW
Cosmos 1441 Rocket 3.1 04:39:15 10° N 04:43:13 80° W 04:46:27 15° S
DELTA 2 R/B (1) 3.5 04:38:06 10° WNW 04:43:38 63° SSW 04:49:10 10° SE
SL-24 DEB 4.3 04:42:21 10° S 04:47:08 88° E 04:51:55 10° N
Cosmos 1844 4.3 04:44:12 23° WSW 04:47:09 41° WNW 04:52:30 10° N
SL-16 R/B 3.7 04:45:56 20° WSW 04:47:16 22° W 04:51:54 10° NW
ADEOS II 2.0 04:42:59 10° N 04:48:15 80° WNW 04:52:26 16° SSW
Meteor 2-8 Rocket 4.4 04:44:04 12° S 04:49:48 89° W 04:56:00 10° N
Cosmos 1892 4.4 04:49:07 10° SSE 04:52:34 32° E 04:56:02 10° NNE
Cosmos 2228 Rocket 3.5 04:49:57 10° NNW 04:54:21 46° W 04:57:41 16° SSW
UNKNOWN OBJECT B 3.8 04:53:52 10° NNW 04:57:07 28° WNW 04:58:38 21° WSW
Cosmos 1455 4.2 05:01:48 10° WNW 05:03:22 13° W 05:03:22 13° W
Lacrosse 5 3.4 05:00:20 10° S 05:04:39 29° ESE 05:08:59 10° ENE
Cosmos 1302 Rocket 4.3 04:59:37 10° NNW 05:04:41 47° WSW 05:09:44 10° S
Cosmos 1515 Rocket 4.3 05:01:44 10° NNW 05:05:35 32° W 05:08:25 16° SW
Cosmos 1633 Rocket 4.4 05:02:52 10° SSE 05:06:53 38° E 05:10:57 10° NNE
GP-B 3.4 05:06:37 10° N 05:10:54 49° W 05:15:11 10° SSW
Helios 1A Rocket 4.5 05:08:15 10° NNW 05:11:18 21° WNW 05:13:24 14° WSW
Cosmos 1869 4.0 05:10:44 10° NNW 05:14:19 34° W 05:17:49 10° SSW
PSLV R/B 3.6 05:10:18 10° NNE 05:14:35 86° E 05:18:54 10° SSW
Cosmos 2341 Rocket 4.2 05:09:27 10° NNW 05:15:28 51° W 05:21:30 10° SSW
COSMOS 2406 3.5 05:11:39 10° NW 05:17:09 46° WSW 05:22:37 10° S
Cosmos 1151 Rocket 4.3 05:14:03 10° NW 05:17:30 23° W 05:20:21 13° SW
SL-8 Rocket 4.0 05:14:43 10° N 05:20:54 72° W 05:27:04 10° S
Okean O Rocket 3.2 05:17:10 10° NNE 05:21:11 34° E 05:25:11 10° SSE
APEX 3.3 05:19:09 10° NNW 05:21:49 53° ENE 05:24:40 10° SE
Sich 1 2.9 05:23:21 10° S 05:27:36 81° W 05:31:54 10° N
ATLAS 2AS CENTAUR R/B 3.7 05:22:31 11° WSW 05:29:36 44° NW 05:37:19 10° NNE
ASTRO E2 3.4 05:26:42 12° WSW 05:30:09 40° S 05:33:55 10° ESE
Cosmos 2082 Rocket 3.6 05:26:19 10° N 05:31:48 45° ENE 05:37:15 10° SE
SeaSat 1 4.2 05:31:06 10° WSW 05:32:26 11° WSW 05:33:46 10° W
Cosmos 2366 rocket 4.0 05:26:18 10° N 05:32:33 78° W 05:38:42 10° S
Cosmos 1825 4.2 05:32:13 10° SSE 05:35:32 29° E 05:38:50 10° NNE
ATLAS 5 CENTAUR R/B 4.0 05:37:34 10° SSE 05:40:49 20° ESE 05:44:12 10° ENE
Cosmos 1190 Rocket 4.1 05:37:16 10° SSW 05:42:34 85° ESE 05:47:52 10° NNE
